This is the latest recevied weather packets stored in our database for station/object KI4NG. If no packets are shown the sender has not sent any weather packets the latest 10 day(s).
| Time | Temp. | Humidity | Pressure | Rain* | Wind** | Luminosity | Snow |
|---|---|---|---|---|---|---|---|
| 1788180406 | 21.67° C | 95% | 1023.5 hPa | 0 mm | - | 57 W/m² | - |
| 1788180103 | 21.67° C | 96% | 1023.6 hPa | 0 mm | - | 60 W/m² | - |
| 1788179801 | 21.11° C | 97% | 1023.4 hPa | 0 mm | - | 51 W/m² | - |
| 1788179500 | 20.56° C | 98% | 1023.4 hPa | 0 mm | - | 57 W/m² | - |
| 1788179200 | 20.56° C | 99% | 1023.5 hPa | 0 mm | - | 52 W/m² | - |
| 1788178896 | 20° C | 99% | 1023.1 hPa | 0 mm | - | 44 W/m² | - |
| 1788178596 | 20° C | 99% | 1023.4 hPa | 0 mm | - | 39 W/m² | - |
| 1788178292 | 20° C | 99% | 1023.4 hPa | 0 mm | - | 36 W/m² | - |
| 1788177987 | 20° C | 99% | 1023.2 hPa | 0 mm | - | 34 W/m² | - |
| 1788177682 | 20° C | 99% | 1023.1 hPa | 0 mm | - | 32 W/m² | - |
| 1788177378 | 20° C | 99% | 1023.3 hPa | 0 mm | - | 28 W/m² | - |
| 1788177074 | 20° C | 99% | 1023.1 hPa | 0 mm | - | 24 W/m² | - |
| 1788176772 | 20° C | 99% | 1023 hPa | 0 mm | - | 21 W/m² | - |
| 1788176468 | 20° C | 99% | 1023.1 hPa | 0 mm | - | 18 W/m² | - |
| 1788176167 | 20° C | 99% | 1023.1 hPa | 0 mm | - | 16 W/m² | - |
| 1788175863 | 20° C | 99% | 1022.9 hPa | 0 mm | - | 12 W/m² | - |
| 1788175561 | 20° C | 99% | 1022.9 hPa | 0 mm | - | 10 W/m² | - |
| 1788175257 | 20° C | 99% | 1023 hPa | 0 mm | - | 7 W/m² | - |
| 1788174953 | 19.44° C | 99% | 1023 hPa | 0 mm | - | 3 W/m² | - |
| 1788174648 | 20° C | 99% | 1022.9 hPa | 0 mm | - | 2 W/m² | - |
| 1788174343 | 20° C | 99% | 1022.9 hPa | 0 mm | - | 0 W/m² | - |
| 1788174038 | 20° C | 99% | 1022.9 hPa | 0 mm | - | 0 W/m² | - |
| 1788173737 | 20° C | 99% | 1022.5 hPa | 0 mm | - | 0 W/m² | - |
| 1788173432 | 20° C | 99% | 1022.4 hPa | 0 mm | - | 0 W/m² | - |
| 1788173129 | 20° C | 99% | 1022.7 hPa | 0 mm | - | 0 W/m² | - |
* Rain latest hour (hover to see other rain measurements)
** Current wind speed in m/s (hover to see current wind gust speed)